Date String (YYYY-MM-DD hh:mm:ss) UTC,Instrument flags,Ambient pressure (hPa),Sample flow (lpm),Bypass flow (lpm),Sample temperature (°C),Ambient temperature (°C),ASC tube jacket temperature (°C),LED temperature (°C),Box temperature (°C),Sample RH (%),Span deviation,Mass concentration (μg/m³),Mass concentration (μg/m³),Mass concentration (μg/m³)
DateTimeUTC,F1_M11,P_M11,Q1_M11,Q2_M11,T1_M11,T2_M11,T3_M11,T4_M11,T5_M11,U1_M11,ZSPAN_M11,X0_M11,X2_M11,X1_M11
2021-12-30 13:00:00,,0812.1,5.00,0.00,22.0,22.0,00.0,31.0,23.7,08.8,0000.0,0003.97,0000.47,0000.25
2021-12-30 13:01:00,,0812.1,5.00,0.00,22.0,21.8,00.0,31.0,23.7,08.7,0000.0,0003.87,0000.44,0000.24
2021-12-30 13:02:00,,0812.1,4.99,0.00,22.0,21.7,00.0,31.0,23.6,08.7,0000.0,0003.45,0000.47,0000.24
2021-12-30 13:03:00,,0812.1,5.01,0.00,22.0,21.6,00.0,31.0,23.6,08.7,0000.0,0003.18,0000.46,0000.24
2021-12-30 13:04:00,,0812.1,5.00,0.00,21.9,21.5,00.0,31.0,23.5,08.8,0000.0,0003.64,0000.47,0000.23
2021-12-30 13:05:00,,0812.0,4.99,0.00,21.9,21.3,00.0,30.9,23.4,08.8,0000.0,0003.68,0000.46,0000.23
2021-12-30 13:06:00,,0812.1,5.01,0.00,21.8,21.2,00.0,30.9,23.4,08.8,0000.0,0004.51,0000.46,0000.23
2021-12-30 13:07:00,,0812.0,4.99,0.00,21.8,21.2,00.0,30.9,23.4,08.8,0000.0,0005.36,0000.46,0000.23
2021-12-30 13:08:00,,0812.1,5.01,0.00,21.8,21.2,00.0,30.9,23.4,08.7,0000.0,0006.04,0000.47,0000.23
2021-12-30 13:09:00,,0812.1,5.02,0.00,21.8,21.2,00.0,30.9,23.4,08.8,0000.0,0005.47,0000.47,0000.22
2021-12-30 13:10:00,,0812.2,5.00,0.00,21.8,21.1,00.0,30.9,23.3,08.7,0000.0,0004.62,0000.45,0000.20
2021-12-30 13:11:00,,0812.2,4.99,0.00,21.7,21.0,00.0,30.9,23.3,08.8,0000.0,0004.58,0000.45,0000.19
2021-12-30 13:12:00,,0812.1,5.00,0.00,21.6,20.9,00.0,30.8,23.2,08.9,0000.0,0004.57,0000.45,0000.19
2021-12-30 13:13:00,,0812.1,5.01,0.00,21.6,20.9,00.0,30.8,23.2,08.9,0000.0,0004.74,0000.45,0000.18
2021-12-30 13:14:00,,0812.1,5.01,0.00,21.7,21.6,00.0,30.8,23.4,08.7,0000.0,0004.67,0000.45,0000.17
2021-12-30 13:15:00,,0812.2,5.00,0.00,21.9,22.6,00.0,30.9,23.7,08.7,0000.0,0004.12,0000.44,0000.16
2021-12-30 13:16:00,,0812.1,5.00,0.00,22.0,23.1,00.0,30.9,24.0,08.7,0000.0,0004.24,0000.44,0000.15
2021-12-30 13:17:00,,0812.0,5.00,0.00,22.0,22.7,00.0,30.9,23.9,08.7,0000.0,0003.24,0000.42,0000.14
2021-12-30 13:18:00,,0812.0,5.01,0.00,22.0,22.4,00.0,30.9,23.8,08.6,0000.0,0002.60,0000.45,0000.14
2021-12-30 13:19:00,,0812.0,4.99,0.00,22.0,22.1,00.0,30.9,23.6,08.6,0000.0,0002.11,0000.46,0000.15
2021-12-30 13:20:00,,0812.1,5.01,0.00,21.9,21.8,00.0,30.9,23.5,08.7,0000.0,0001.70,0000.46,0000.14
2021-12-30 13:21:00,,0812.0,5.00,0.00,21.9,21.6,00.0,30.9,23.4,08.8,0000.0,0001.70,0000.48,0000.14
2021-12-30 13:22:00,,0812.0,5.01,0.00,21.8,21.4,00.0,30.9,23.3,08.8,0000.0,0001.67,0000.48,0000.14
2021-12-30 13:23:00,,0812.1,4.99,0.00,21.8,21.2,00.0,30.9,23.3,08.7,0000.0,0001.71,0000.50,0000.14
2021-12-30 13:24:00,,0812.1,5.00,0.00,21.7,21.1,00.0,30.9,23.2,08.7,0000.0,0001.52,0000.49,0000.14
2021-12-30 13:25:00,,0812.1,5.01,0.00,21.6,21.0,00.0,30.8,23.1,08.8,0000.0,0001.30,0000.46,0000.14
2021-12-30 13:26:00,,0812.1,5.00,0.00,21.6,20.8,00.0,30.8,23.0,08.9,0000.0,0001.28,0000.46,0000.14
2021-12-30 13:27:00,,0812.2,5.00,0.00,21.5,20.8,00.0,30.8,23.0,08.9,0000.0,0001.20,0000.45,0000.14
2021-12-30 13:28:00,,0812.1,5.00,0.00,21.5,20.7,00.0,30.7,22.9,09.0,0000.0,0001.26,0000.46,0000.15
2021-12-30 13:29:00,,0812.1,5.00,0.00,21.5,21.0,00.0,30.7,23.0,08.9,0000.0,0002.47,0000.42,0000.14
2021-12-30 13:30:00,,0812.0,5.00,0.00,21.6,22.0,00.0,30.8,23.4,08.8,0000.0,0002.50,0000.39,0000.14
2021-12-30 13:31:00,,0812.1,5.01,0.00,21.8,22.9,00.0,30.8,23.8,08.7,0000.0,0002.43,0000.37,0000.14
2021-12-30 13:32:00,,0812.1,5.00,0.00,21.9,22.9,00.0,30.8,23.8,08.7,0000.0,0002.34,0000.34,0000.14
2021-12-30 13:33:00,,0812.1,5.01,0.00,21.9,22.5,00.0,30.9,23.7,08.8,0000.0,0002.77,0000.34,0000.14
2021-12-30 13:34:00,,0812.1,4.99,0.00,21.8,22.1,00.0,30.8,23.5,09.0,0000.0,0003.72,0000.34,0000.14
2021-12-30 13:35:00,,0812.1,5.01,0.00,21.8,21.8,00.0,30.8,23.3,09.1,0000.0,0003.73,0000.33,0000.14
2021-12-30 13:36:00,,0812.1,5.01,0.00,21.7,21.5,00.0,30.8,23.2,09.1,0000.0,0003.73,0000.33,0000.14
2021-12-30 13:37:00,,0812.1,4.99,0.00,21.7,21.3,00.0,30.8,23.2,09.1,0000.0,0003.76,0000.33,0000.14
2021-12-30 13:38:00,,0812.1,5.00,0.00,21.6,21.2,00.0,30.8,23.1,09.2,0000.0,0003.73,0000.31,0000.14
2021-12-30 13:39:00,,0812.0,4.99,0.00,21.6,21.0,00.0,30.8,23.0,09.1,0000.0,0003.62,0000.30,0000.14
2021-12-30 13:40:00,,0811.9,4.99,0.00,21.5,20.9,00.0,30.7,23.0,09.2,0000.0,0002.38,0000.31,0000.14
2021-12-30 13:41:00,,0812.0,5.01,0.00,21.5,20.8,00.0,30.7,22.9,09.2,0000.0,0002.24,0000.32,0000.14
2021-12-30 13:42:00,,0811.9,4.99,0.00,21.4,20.8,00.0,30.7,22.9,09.2,0000.0,0002.35,0000.34,0000.14
2021-12-30 13:43:00,,0812.0,5.00,0.00,21.4,20.8,00.0,30.7,23.0,09.2,0000.0,0002.61,0000.39,0000.14
2021-12-30 13:44:00,,0812.0,5.01,0.00,21.4,20.7,00.0,30.6,23.0,09.1,0000.0,0002.52,0000.41,0000.14
2021-12-30 13:45:00,,0812.1,4.99,0.00,21.4,21.0,00.0,30.6,23.0,08.9,0000.0,0001.57,0000.39,0000.15
2021-12-30 13:46:00,,0812.0,5.00,0.00,21.6,22.0,00.0,30.7,23.4,08.8,0000.0,0001.40,0000.36,0000.15
2021-12-30 13:47:00,,0812.0,5.01,0.00,21.8,22.8,00.0,30.7,23.7,08.7,0000.0,0001.38,0000.36,0000.15
2021-12-30 13:48:00,,0812.0,5.00,0.00,21.9,22.8,00.0,30.8,23.8,08.6,0000.0,0001.33,0000.35,0000.15
2021-12-30 13:49:00,,0811.9,4.99,0.00,21.9,22.5,00.0,30.8,23.8,08.6,0000.0,0001.23,0000.34,0000.15
2021-12-30 13:50:00,,0812.0,5.01,0.00,21.9,22.3,00.0,30.8,23.7,08.6,0000.0,0001.21,0000.33,0000.14
2021-12-30 13:51:00,,0812.0,5.00,0.00,21.9,22.0,00.0,30.8,23.7,08.6,0000.0,0001.14,0000.31,0000.15
2021-12-30 13:52:00,,0812.1,5.00,0.00,21.9,21.9,00.0,30.8,23.6,08.5,0000.0,0001.12,0000.30,0000.14
2021-12-30 13:53:00,,0812.2,5.00,0.00,21.9,21.7,00.0,30.8,23.6,08.6,0000.0,0001.11,0000.29,0000.14
2021-12-30 13:54:00,,0812.1,5.00,0.00,21.9,21.6,00.0,30.8,23.5,08.5,0000.0,0001.00,0000.26,0000.13
2021-12-30 13:55:00,,0812.1,4.99,0.00,21.9,21.5,00.0,30.8,23.5,08.5,0000.0,0001.30,0000.24,0000.13
2021-12-30 13:56:00,,0812.0,5.01,0.00,21.8,21.4,00.0,30.8,23.4,08.5,0000.0,0001.75,0000.23,0000.13
2021-12-30 13:57:00,,0811.9,5.00,0.00,21.8,21.3,00.0,30.8,23.3,08.6,0000.0,0001.76,0000.24,0000.13
2021-12-30 13:58:00,,0811.8,5.01,0.00,21.7,21.1,00.0,30.8,23.3,08.5,0000.0,0001.78,0000.24,0000.13
2021-12-30 13:59:00,,0811.8,5.00,0.00,21.7,21.1,00.0,30.8,23.2,08.6,0000.0,0001.80,0000.24,0000.12
